Location: Newark
(52.4787°S, 179.0532°W)
Time: 00:05:05
(UTC+00:00)

ISS - Pass Details

Date: 23 October 2019
Orbit: 412 x 421 km, 51.6° (Epoch: 21 November)

Event Time Altitude Azimuth Distance (km) Brightness Sun altitude
Rises 09:26:18 0° 273° (W) 2,379 0.5 -20.0°
Reaches altitude 10° 09:28:24 10° 274° (W) 1,517 -0.6 -20.1°
Enters shadow 09:31:24 65° 295° (WNW) 472 -3.6 -20.4°
